Time,TemperatureF,DewpointF,PressureIn,WindDirection,WindDirectionDegrees,WindSpeedMPH,WindSpeedGustMPH,Humidity,HourlyPrecipIn,Conditions,Clouds,dailyrainin,SolarRadiationWatts/m^2,SoftwareType,DateUTC
2013-03-09 00:02:00,29.0,24.0,-100.00,ENE,73,2.0,4.0,81,0.00,,,0.00,0.000000,,2013-03-09 06:02:00,
2013-03-09 00:11:00,29.0,24.0,-100.00,ENE,73,2.0,4.0,81,0.00,,,0.00,0.000000,,2013-03-09 06:11:00,
2013-03-09 00:32:00,30.0,25.0,-100.00,ENE,75,2.0,5.0,80,0.00,,,0.00,0.000000,,2013-03-09 06:32:00,
2013-03-09 00:42:00,30.0,25.0,-100.00,ENE,75,2.0,5.0,80,0.00,,,0.00,0.000000,,2013-03-09 06:42:00,
2013-03-09 00:52:00,30.0,25.0,-100.00,ENE,75,2.0,5.0,80,0.00,,,0.00,0.000000,,2013-03-09 06:52:00,
2013-03-09 01:01:00,30.0,25.0,-100.00,ENE,75,2.0,5.0,80,0.00,,,0.00,0.000000,,2013-03-09 07:01:00,
2013-03-09 01:11:00,30.0,25.0,-100.00,ENE,75,2.0,5.0,80,0.00,,,0.00,0.000000,,2013-03-09 07:11:00,
2013-03-09 01:32:00,29.0,24.0,-100.00,ENE,72,2.0,4.0,81,0.00,,,0.00,0.000000,,2013-03-09 07:32:00,
2013-03-09 01:42:00,29.0,24.0,-100.00,ENE,72,2.0,4.0,81,0.00,,,0.00,0.000000,,2013-03-09 07:42:00,
2013-03-09 01:52:00,29.0,24.0,-100.00,ENE,72,2.0,4.0,81,0.00,,,0.00,0.000000,,2013-03-09 07:52:00,
2013-03-09 02:01:00,29.0,24.0,-100.00,ENE,72,2.0,4.0,81,0.00,,,0.00,0.000000,,2013-03-09 08:01:00,
2013-03-09 02:11:00,29.0,24.0,-100.00,ENE,72,2.0,4.0,81,0.00,,,0.00,0.000000,,2013-03-09 08:11:00,
2013-03-09 02:42:00,30.0,25.0,-100.00,East,83,2.0,4.0,80,0.00,,,0.00,0.000000,,2013-03-09 08:42:00,
2013-03-09 02:52:00,30.0,25.0,-100.00,East,83,2.0,4.0,80,0.00,,,0.00,0.000000,,2013-03-09 08:52:00,
2013-03-09 03:01:00,30.0,25.0,-100.00,East,83,2.0,4.0,80,0.00,,,0.00,0.000000,,2013-03-09 09:01:00,
2013-03-09 03:12:00,30.0,25.0,-100.00,East,83,2.0,4.0,80,0.00,,,0.00,0.000000,,2013-03-09 09:12:00,
2013-03-09 03:32:00,30.0,24.0,-100.00,East,80,2.0,4.0,77,0.00,,,0.00,0.000000,,2013-03-09 09:32:00,
2013-03-09 03:42:00,30.0,24.0,-100.00,East,80,2.0,4.0,77,0.00,,,0.00,0.000000,,2013-03-09 09:42:00,
2013-03-09 03:52:00,30.0,24.0,-100.00,East,80,2.0,4.0,77,0.00,,,0.00,0.000000,,2013-03-09 09:52:00,
2013-03-09 04:01:00,30.0,24.0,-100.00,East,80,2.0,4.0,77,0.00,,,0.00,0.000000,,2013-03-09 10:01:00,
2013-03-09 04:11:00,30.0,24.0,-100.00,East,80,2.0,4.0,77,0.00,,,0.00,0.000000,,2013-03-09 10:11:00,
2013-03-09 04:42:00,33.0,26.0,-100.00,ESE,116,3.0,6.0,74,0.00,,,0.00,0.000000,,2013-03-09 10:42:00,
2013-03-09 04:52:00,33.0,26.0,-100.00,ESE,116,3.0,6.0,74,0.00,,,0.00,0.000000,,2013-03-09 10:52:00,
2013-03-09 05:01:00,33.0,26.0,-100.00,ESE,116,3.0,6.0,74,0.00,,,0.00,0.000000,,2013-03-09 11:01:00,
2013-03-09 05:11:00,33.0,26.0,-100.00,ESE,116,3.0,6.0,74,0.00,,,0.00,0.000000,,2013-03-09 11:11:00,
2013-03-09 05:32:00,32.0,29.0,-100.00,ESE,108,4.0,7.0,88,0.02,,,0.02,0.000000,,2013-03-09 11:32:00,
2013-03-09 05:42:00,32.0,29.0,-100.00,ESE,108,4.0,7.0,88,0.02,,,0.02,0.000000,,2013-03-09 11:42:00,
2013-03-09 05:52:00,32.0,29.0,-100.00,ESE,108,4.0,7.0,88,0.02,,,0.02,0.000000,,2013-03-09 11:52:00,
2013-03-09 06:01:00,32.0,29.0,-100.00,ESE,108,4.0,7.0,88,0.02,,,0.02,0.000000,,2013-03-09 12:01:00,
2013-03-09 06:11:00,32.0,29.0,-100.00,ESE,108,4.0,7.0,88,0.02,,,0.02,0.000000,,2013-03-09 12:11:00,
2013-03-09 06:32:00,32.0,30.0,-100.00,ESE,105,4.0,10.0,92,0.04,,,0.06,0.000000,,2013-03-09 12:32:00,
2013-03-09 06:42:00,32.0,30.0,-100.00,ESE,105,4.0,10.0,92,0.04,,,0.06,0.000000,,2013-03-09 12:42:00,
2013-03-09 06:52:00,32.0,30.0,-100.00,ESE,105,4.0,10.0,92,0.04,,,0.06,0.000000,,2013-03-09 12:52:00,
2013-03-09 07:02:00,32.0,30.0,-100.00,ESE,105,4.0,10.0,92,0.04,,,0.06,0.000000,,2013-03-09 13:02:00,
2013-03-09 07:11:00,32.0,30.0,-100.00,ESE,105,4.0,10.0,92,0.04,,,0.06,0.000000,,2013-03-09 13:11:00,
2013-03-09 07:32:00,32.0,30.0,-100.00,ESE,104,4.0,10.0,94,0.01,,,0.07,1.000000,,2013-03-09 13:32:00,
2013-03-09 07:42:00,32.0,30.0,-100.00,ESE,104,4.0,10.0,94,0.01,,,0.07,1.000000,,2013-03-09 13:42:00,
2013-03-09 07:52:00,32.0,30.0,-100.00,ESE,104,4.0,10.0,94,0.01,,,0.07,1.000000,,2013-03-09 13:52:00,
2013-03-09 08:01:00,32.0,30.0,-100.00,ESE,104,4.0,10.0,94,0.01,,,0.07,1.000000,,2013-03-09 14:01:00,
2013-03-09 08:11:00,32.0,30.0,-100.00,ESE,104,4.0,10.0,94,0.01,,,0.07,1.000000,,2013-03-09 14:11:00,
2013-03-09 08:32:00,32.0,31.0,-100.00,East,101,2.0,7.0,95,0.00,,,0.07,8.000000,,2013-03-09 14:32:00,
2013-03-09 08:42:00,32.0,31.0,-100.00,East,101,2.0,7.0,95,0.00,,,0.07,8.000000,,2013-03-09 14:42:00,
2013-03-09 08:52:00,32.0,31.0,-100.00,East,101,2.0,7.0,95,0.00,,,0.07,8.000000,,2013-03-09 14:52:00,
2013-03-09 09:02:00,32.0,31.0,-100.00,East,101,2.0,7.0,95,0.00,,,0.07,8.000000,,2013-03-09 15:02:00,
2013-03-09 09:11:00,32.0,31.0,-100.00,East,101,2.0,7.0,95,0.00,,,0.07,8.000000,,2013-03-09 15:11:00,
2013-03-09 09:42:00,33.0,31.0,-100.00,ESE,116,4.0,8.0,94,0.00,,,0.07,21.000000,,2013-03-09 15:42:00,
2013-03-09 09:52:00,33.0,31.0,-100.00,ESE,116,4.0,8.0,94,0.00,,,0.07,21.000000,,2013-03-09 15:52:00,
2013-03-09 10:01:00,33.0,31.0,-100.00,ESE,116,4.0,8.0,94,0.00,,,0.07,21.000000,,2013-03-09 16:01:00,
2013-03-09 10:11:00,33.0,31.0,-100.00,ESE,116,4.0,8.0,94,0.00,,,0.07,21.000000,,2013-03-09 16:11:00,
2013-03-09 10:32:00,34.0,33.0,-100.00,ESE,103,3.0,8.0,95,0.00,,,-99.99,42.000000,,2013-03-09 16:32:00,
2013-03-09 10:42:00,34.0,33.0,-100.00,ESE,103,3.0,8.0,95,0.00,,,-99.99,42.000000,,2013-03-09 16:42:00,
2013-03-09 10:52:00,34.0,33.0,-100.00,ESE,103,3.0,8.0,95,0.00,,,-99.99,42.000000,,2013-03-09 16:52:00,
2013-03-09 11:01:00,34.0,33.0,-100.00,ESE,103,3.0,8.0,95,0.00,,,-99.99,42.000000,,2013-03-09 17:01:00,
2013-03-09 11:11:00,34.0,33.0,-100.00,ESE,103,3.0,8.0,95,0.00,,,-99.99,42.000000,,2013-03-09 17:11:00,
2013-03-09 11:32:00,34.0,33.0,-100.00,ESE,112,3.0,7.0,95,0.00,,,0.07,50.000000,,2013-03-09 17:32:00,
2013-03-09 11:42:00,34.0,33.0,-100.00,ESE,112,3.0,7.0,95,0.00,,,0.07,50.000000,,2013-03-09 17:42:00,
2013-03-09 11:52:00,34.0,33.0,-100.00,ESE,112,3.0,7.0,95,0.00,,,0.07,50.000000,,2013-03-09 17:52:00,
2013-03-09 12:02:00,34.0,33.0,-100.00,ESE,112,3.0,7.0,95,0.00,,,0.07,50.000000,,2013-03-09 18:02:00,
2013-03-09 12:11:00,34.0,33.0,-100.00,ESE,112,3.0,7.0,95,0.00,,,0.07,50.000000,,2013-03-09 18:11:00,
2013-03-09 12:32:00,36.0,35.0,-100.00,SE,133,3.0,8.0,95,0.07,,,-99.99,55.000000,,2013-03-09 18:32:00,
2013-03-09 12:42:00,36.0,35.0,-100.00,SE,133,3.0,8.0,95,0.07,,,-99.99,55.000000,,2013-03-09 18:42:00,
2013-03-09 12:52:00,36.0,35.0,-100.00,SE,133,3.0,8.0,95,0.07,,,-99.99,55.000000,,2013-03-09 18:52:00,
2013-03-09 13:01:00,36.0,35.0,-100.00,SE,133,3.0,8.0,95,0.07,,,-99.99,55.000000,,2013-03-09 19:01:00,
2013-03-09 13:11:00,36.0,35.0,-100.00,SE,133,3.0,8.0,95,0.07,,,-99.99,55.000000,,2013-03-09 19:11:00,
2013-03-09 13:42:00,35.0,34.0,-100.00,ESE,119,4.0,9.0,95,0.03,,,0.17,59.000000,,2013-03-09 19:42:00,
2013-03-09 13:52:00,35.0,34.0,-100.00,ESE,119,4.0,9.0,95,0.03,,,0.17,59.000000,,2013-03-09 19:52:00,
2013-03-09 14:01:00,35.0,34.0,-100.00,ESE,119,4.0,9.0,95,0.03,,,0.17,59.000000,,2013-03-09 20:01:00,
2013-03-09 14:11:00,35.0,34.0,-100.00,ESE,119,4.0,9.0,95,0.03,,,0.17,59.000000,,2013-03-09 20:11:00,
2013-03-09 14:42:00,35.0,34.0,-100.00,ESE,115,3.0,8.0,95,0.06,,,0.23,44.000000,,2013-03-09 20:42:00,
2013-03-09 14:52:00,35.0,34.0,-100.00,ESE,115,3.0,8.0,95,0.06,,,0.23,44.000000,,2013-03-09 20:52:00,
2013-03-09 15:02:00,35.0,34.0,-100.00,ESE,115,3.0,8.0,95,0.06,,,0.23,44.000000,,2013-03-09 21:02:00,
2013-03-09 15:12:00,35.0,34.0,-100.00,ESE,115,3.0,8.0,95,0.06,,,0.23,44.000000,,2013-03-09 21:12:00,
2013-03-09 15:32:00,35.0,34.0,-100.00,East,97,2.0,8.0,95,0.06,,,0.29,45.000000,,2013-03-09 21:32:00,
2013-03-09 15:42:00,35.0,34.0,-100.00,East,97,2.0,8.0,95,0.06,,,0.29,45.000000,,2013-03-09 21:42:00,
2013-03-09 15:52:00,35.0,34.0,-100.00,East,97,2.0,8.0,95,0.06,,,0.29,45.000000,,2013-03-09 21:52:00,
2013-03-09 16:01:00,35.0,34.0,-100.00,East,97,2.0,8.0,95,0.06,,,0.29,45.000000,,2013-03-09 22:01:00,
2013-03-09 16:11:00,35.0,34.0,-100.00,East,97,2.0,8.0,95,0.06,,,0.29,45.000000,,2013-03-09 22:11:00,
2013-03-09 16:42:00,35.0,34.0,-100.00,East,87,2.0,7.0,96,0.01,,,0.30,27.000000,,2013-03-09 22:42:00,
2013-03-09 16:52:00,35.0,34.0,-100.00,East,87,2.0,7.0,96,0.01,,,0.30,27.000000,,2013-03-09 22:52:00,
2013-03-09 17:01:00,35.0,34.0,-100.00,East,87,2.0,7.0,96,0.01,,,0.30,27.000000,,2013-03-09 23:01:00,
2013-03-09 17:11:00,35.0,34.0,-100.00,East,87,2.0,7.0,96,0.01,,,0.30,27.000000,,2013-03-09 23:11:00,
2013-03-09 17:32:00,35.0,34.0,-100.00,ENE,71,2.0,5.0,97,0.03,,,0.33,13.000000,,2013-03-09 23:32:00,
2013-03-09 17:42:00,35.0,34.0,-100.00,ENE,71,2.0,5.0,97,0.03,,,0.33,13.000000,,2013-03-09 23:42:00,
2013-03-09 17:52:00,35.0,34.0,-100.00,ENE,71,2.0,5.0,97,0.03,,,0.33,13.000000,,2013-03-09 23:52:00,
2013-03-09 18:01:00,35.0,34.0,-100.00,ENE,71,2.0,5.0,97,0.03,,,0.33,13.000000,,2013-03-10 00:01:00,
2013-03-09 18:11:00,35.0,34.0,-100.00,ENE,71,2.0,5.0,97,0.03,,,0.33,13.000000,,2013-03-10 00:11:00,
2013-03-09 18:32:00,34.0,34.0,-100.00,ENE,65,1.0,6.0,98,0.02,,,0.35,5.000000,,2013-03-10 00:32:00,
2013-03-09 18:43:00,34.0,34.0,-100.00,ENE,65,1.0,6.0,98,0.02,,,0.35,5.000000,,2013-03-10 00:43:00,
2013-03-09 18:52:00,34.0,34.0,-100.00,ENE,65,1.0,6.0,98,0.02,,,0.35,5.000000,,2013-03-10 00:52:00,
2013-03-09 19:01:00,34.0,34.0,-100.00,ENE,65,1.0,6.0,98,0.02,,,0.35,5.000000,,2013-03-10 01:01:00,
2013-03-09 19:11:00,34.0,34.0,-100.00,ENE,65,1.0,6.0,98,0.02,,,0.35,5.000000,,2013-03-10 01:11:00,
2013-03-09 19:42:00,34.0,34.0,-100.00,NE,50,1.0,4.0,98,0.01,,,-99.99,0.000000,,2013-03-10 01:42:00,
2013-03-09 19:52:00,34.0,34.0,-100.00,NE,50,1.0,4.0,98,0.01,,,-99.99,0.000000,,2013-03-10 01:52:00,
2013-03-09 20:01:00,34.0,34.0,-100.00,NE,50,1.0,4.0,98,0.01,,,-99.99,0.000000,,2013-03-10 02:01:00,
2013-03-09 20:11:00,34.0,34.0,-100.00,NE,50,1.0,4.0,98,0.01,,,-99.99,0.000000,,2013-03-10 02:11:00,
2013-03-09 20:42:00,34.0,34.0,-100.00,NE,40,1.0,3.0,98,0.01,,,-99.99,0.000000,,2013-03-10 02:42:00,
2013-03-09 20:52:00,34.0,34.0,-100.00,NE,40,1.0,3.0,98,0.01,,,-99.99,0.000000,,2013-03-10 02:52:00,
2013-03-09 21:02:00,34.0,34.0,-100.00,NE,40,1.0,3.0,98,0.01,,,-99.99,0.000000,,2013-03-10 03:02:00,
2013-03-09 21:11:00,34.0,34.0,-100.00,NE,40,1.0,3.0,98,0.01,,,-99.99,0.000000,,2013-03-10 03:11:00,
2013-03-09 21:32:00,34.0,34.0,-100.00,NNW,342,0.0,2.0,98,0.02,,,0.39,0.000000,,2013-03-10 03:32:00,
2013-03-09 21:42:00,34.0,34.0,-100.00,NNW,342,0.0,2.0,98,0.02,,,0.39,0.000000,,2013-03-10 03:42:00,
2013-03-09 21:52:00,34.0,34.0,-100.00,NNW,342,0.0,2.0,98,0.02,,,0.39,0.000000,,2013-03-10 03:52:00,
2013-03-09 22:01:00,34.0,34.0,-100.00,NNW,342,0.0,2.0,98,0.02,,,0.39,0.000000,,2013-03-10 04:01:00,
2013-03-09 22:11:00,34.0,34.0,-100.00,NNW,342,0.0,2.0,98,0.02,,,0.39,0.000000,,2013-03-10 04:11:00,
2013-03-09 22:32:00,34.0,34.0,-100.00,NNW,335,1.0,3.0,98,0.01,,,0.40,0.000000,,2013-03-10 04:32:00,
2013-03-09 22:42:00,34.0,34.0,-100.00,NNW,335,1.0,3.0,98,0.01,,,0.40,0.000000,,2013-03-10 04:42:00,
2013-03-09 22:52:00,34.0,34.0,-100.00,NNW,335,1.0,3.0,98,0.01,,,0.40,0.000000,,2013-03-10 04:52:00,
2013-03-09 23:01:00,34.0,34.0,-100.00,NNW,335,1.0,3.0,98,0.01,,,0.40,0.000000,,2013-03-10 05:01:00,
2013-03-09 23:11:00,34.0,34.0,-100.00,NNW,335,1.0,3.0,98,0.01,,,0.40,0.000000,,2013-03-10 05:11:00,
2013-03-09 23:42:00,34.0,34.0,-100.00,NW,308,2.0,6.0,98,0.00,,,0.40,0.000000,,2013-03-10 05:42:00,
2013-03-09 23:52:00,34.0,34.0,-100.00,NW,308,2.0,6.0,98,0.00,,,0.40,0.000000,,2013-03-10 05:52:00,